Flag for Canada Weather past 2 weeks in Stephenville, Newfoundland and Labrador, Canada

Now
39 °F

Scattered clouds.


Feels Like: 33 °F
Forecast: 24 / 42 °F
Wind: 9 mph from Southeast

Location: Stephenville

Current Time: Apr 21, 2015 at 7:41:01 PM

Latest Report: Apr 21, 2015 at 6:30 PM


Visibility: 15 mi

Pressure: 30.26 "Hg

Humidity: 56%

Dew point: 25 °F

Location of StephenvilleLocation

Historic Weather in Stephenville — Graph

°F

Stephenville temperature yesterday

Maximum temperature yesterday: 43 °F (at 4:30 PM)
Minimum temperature yesterday: 23 °F (at 1:30 AM)
Average temperature yesterday: 31 °F

Past Weeks' High & Low Weather Summary

 TemperatureHumidityPressure
High45 °F (Apr 14, 9:30 AM)100% (Apr 11, 11:30 AM)30.56 "Hg (Apr 11, 11:30 AM)
Low7 °F (Apr 10, 5:30 AM)37% (Apr 21, 12:30 PM)29.29 "Hg (Apr 11, 4:30 PM)
Average29 °F75%30.08 "Hg
* Reported Apr 6 5:30 PM — Apr 21 5:30 PM, Stephenville, Weather by CustomWeather, © 2015

Note: Actual official high and low records may vary slightly from our data, if they occured in-between our weather recording intervals... More about our weather records

Advertising

Stephenville weather history for previous 24 hours

 ConditionsComfort  
Time TempWeatherWind HumidityBarometerVisibility
5:30 PM
Tue, Apr 21
41 °FScattered clouds.9 mph57%30.28 "Hg15 mi
4:30 PM41 °FPassing clouds.8 mph57%30.29 "Hg15 mi
3:30 PM41 °FPassing clouds.6 mph57%30.29 "Hg15 mi
2:30 PM41 °FPassing clouds.8 mph61%30.31 "Hg15 mi
1:30 PM43 °FPassing clouds.12 mph42%30.31 "Hg15 mi
12:30 PM45 °FPassing clouds.9 mph37%30.34 "Hg15 mi
11:30 AM43 °FScattered clouds.5 mph42%30.36 "Hg15 mi
10:30 AM39 °FPartly sunny.7 mph52%30.38 "Hg15 mi
9:30 AM36 °FPartly sunny.6 mph65%30.40 "Hg15 mi
8:30 AM32 °FPartly sunny.6 mph64%30.41 "Hg15 mi
7:30 AM28 °FPartly sunny.6 mph69%30.39 "Hg15 mi
6:30 AM27 °FPassing clouds.7 mph74%30.38 "Hg15 mi
5:30 AM27 °FPassing clouds.5 mph74%30.40 "Hg15 mi
4:30 AM25 °FClear.5 mph80%30.42 "Hg15 mi
3:30 AM25 °FClear.5 mph80%30.41 "Hg15 mi
2:30 AM27 °FClear.3 mph80%30.42 "Hg15 mi
1:30 AM27 °FClear.3 mph80%30.44 "Hg15 mi
12:30 AM27 °FClear.5 mph86%30.44 "Hg15 mi
11:30 PM
Mon, Apr 20
27 °FClear.No wind86%30.44 "Hg15 mi
10:30 PM27 °FClear.5 mph86%30.44 "Hg15 mi
9:30 PM32 °FClear.5 mph60%30.42 "Hg15 mi
8:30 PM34 °FPassing clouds.6 mph48%30.41 "Hg15 mi
7:30 PM39 °FPassing clouds.13 mph42%30.39 "Hg15 mi
Weather by CustomWeather, © 2015

See weather overviewHow to use our weather pages